When you browse on this site, cookies collect data to enhance your experience and personalize the content and advertising you see.
Visit our Privacy Policy to learn more. By continuing to use the site, you agree to this use of cookies and data.
  • In Hungary
  • List of Countries
  • For 7 days
  • Water Temperature
  • Satellite Maps
  • Weather Map
  • News
  • Weather Widgets
  • user-avatar
    Login

    Hourly Weather Bienkowice

    Today, 26 May, Sunday

    Time Temperature Precipitation Wind Pressure Humidity
    00:00 +12°C° 0 mm 1 mps 732 mmHg 87%
    01:00 +12°C° 0 mm 1 mps 732 mmHg 86%
    02:00 +12°C° 0.1 mm 1 mps 732 mmHg 87%
    03:00 +12°C° 0.1 mm 1 mps 732 mmHg 87%
    04:00 +11°C° 0.1 mm 1 mps 732 mmHg 87%
    05:00 +13°C° 0 mm 1 mps 732 mmHg 83%
    06:00 +15°C° 0 mm 1 mps 732 mmHg 78%
    07:00 +18°C° 0 mm 1 mps 732 mmHg 71%
    08:00 +18°C° 0.2 mm 2 mps 732 mmHg 71%
    09:00 +19°C° 0.2 mm 2 mps 732 mmHg 70%
    10:00 +20°C° 0.2 mm 3 mps 732 mmHg 69%
    11:00 +21°C° 0.2 mm 3 mps 732 mmHg 66%
    12:00 +21°C° 0.2 mm 3 mps 732 mmHg 63%
    13:00 +22°C° 0.2 mm 3 mps 732 mmHg 60%
    14:00 +22°C° 0.4 mm 3 mps 732 mmHg 63%
    15:00 +22°C° 0.4 mm 3 mps 731 mmHg 66%
    16:00 +23°C° 0.4 mm 2 mps 731 mmHg 69%
    17:00 +20°C° 0.4 mm 2 mps 731 mmHg 74%
    18:00 +19°C° 0.4 mm 2 mps 731 mmHg 78%
    19:00 +17°C° 0.4 mm 2 mps 731 mmHg 83%
    20:00 +16°C° 0 mm 2 mps 731 mmHg 85%
    21:00 +16°C° 0 mm 2 mps 731 mmHg 87%
    22:00 +15°C° 0 mm 2 mps 731 mmHg 90%
    23:00 +14°C° 0 mm 2 mps 731 mmHg 90%

    Tomorrow, 27 May, Monday

    Time Temperature Precipitation Wind Pressure Humidity
    00:00 +14°C° 0 mm 2 mps 731 mmHg 91%
    01:00 +14°C° 0 mm 2 mps 731 mmHg 91%
    02:00 +13°C° 0 mm 2 mps 731 mmHg 91%
    03:00 +13°C° 0 mm 2 mps 731 mmHg 90%
    04:00 +13°C° 0 mm 2 mps 730 mmHg 90%
    05:00 +15°C° 0 mm 2 mps 730 mmHg 86%
    06:00 +17°C° 0 mm 2 mps 731 mmHg 83%
    07:00 +19°C° 0 mm 2 mps 731 mmHg 80%
    08:00 +21°C° 0.3 mm 2 mps 731 mmHg 72%
    09:00 +23°C° 0.3 mm 2 mps 731 mmHg 64%
    10:00 +25°C° 0.3 mm 2 mps 731 mmHg 56%
    11:00 +25°C° 0.2 mm 2 mps 731 mmHg 56%
    12:00 +25°C° 0.2 mm 2 mps 731 mmHg 57%
    13:00 +25°C° 0.2 mm 2 mps 730 mmHg 57%
    14:00 +25°C° 0.1 mm 2 mps 730 mmHg 57%
    15:00 +25°C° 0.1 mm 2 mps 730 mmHg 56%
    16:00 +25°C° 0.1 mm 2 mps 729 mmHg 55%
    17:00 +24°C° 0 mm 2 mps 729 mmHg 62%
    18:00 +21°C° 0 mm 2 mps 729 mmHg 69%
    19:00 +19°C° 0 mm 2 mps 728 mmHg 76%
    20:00 +18°C° 0.4 mm 2 mps 728 mmHg 80%
    21:00 +18°C° 0.4 mm 2 mps 728 mmHg 84%
    22:00 +17°C° 0.4 mm 2 mps 728 mmHg 87%
    23:00 +18°C° 0.9 mm 1 mps 728 mmHg 90%

    Day after tomorrow, 28 May, Tuesday

    Time Temperature Precipitation Wind Pressure Humidity
    00:00 +16°C° 0.9 mm 1 mps 727 mmHg 92%
    01:00 +16°C° 0.9 mm 1 mps 727 mmHg 94%
    02:00 +16°C° 0.2 mm 1 mps 727 mmHg 94%
    03:00 +16°C° 0.2 mm 1 mps 726 mmHg 94%
    04:00 +16°C° 0.2 mm 1 mps 726 mmHg 94%
    05:00 +18°C° 0 mm 1 mps 726 mmHg 91%
    06:00 +19°C° 0 mm 1 mps 726 mmHg 87%
    07:00 +20°C° 0 mm 2 mps 726 mmHg 83%
    08:00 +21°C° 0 mm 2 mps 726 mmHg 75%
    09:00 +23°C° 0 mm 2 mps 725 mmHg 67%
    10:00 +25°C° 0 mm 2 mps 725 mmHg 59%
    11:00 +24°C° 0.7 mm 2 mps 725 mmHg 66%
    12:00 +23°C° 0.7 mm 1 mps 725 mmHg 74%
    13:00 +22°C° 0.7 mm 1 mps 724 mmHg 81%
    14:00 +23°C° 0.7 mm 1 mps 724 mmHg 78%
    15:00 +23°C° 0.7 mm 1 mps 724 mmHg 74%
    16:00 +24°C° 0.7 mm 1 mps 723 mmHg 71%
    17:00 +23°C° 1.9 mm 1 mps 723 mmHg 75%
    18:00 +21°C° 1.9 mm 1 mps 723 mmHg 79%
    19:00 +20°C° 1.9 mm 1 mps 723 mmHg 83%
    20:00 +17°C° 0.5 mm 2 mps 724 mmHg 87%
    21:00 +16°C° 0.5 mm 2 mps 724 mmHg 91%
    22:00 +14°C° 0.5 mm 3 mps 724 mmHg 95%
    23:00 +13°C° 0 mm 3 mps 724 mmHg 95%

    29 May, Wednesday

    Time Temperature Precipitation Wind Pressure Humidity
    00:00 +14°C° 0 mm 2 mps 724 mmHg 96%
    01:00 +13°C° 0 mm 2 mps 725 mmHg 96%
    02:00 +13°C° 0.1 mm 2 mps 725 mmHg 96%
    03:00 +13°C° 0.1 mm 2 mps 725 mmHg 96%
    04:00 +13°C° 0.1 mm 2 mps 725 mmHg 96%
    05:00 +13°C° 0.5 mm 2 mps 726 mmHg 95%
    06:00 +12°C° 0.5 mm 3 mps 726 mmHg 95%
    07:00 +12°C° 0.5 mm 3 mps 727 mmHg 95%
    08:00 +12°C° 0.3 mm 3 mps 727 mmHg 94%
    09:00 +11°C° 0.3 mm 3 mps 728 mmHg 93%
    10:00 +11°C° 0.3 mm 3 mps 728 mmHg 92%
    11:00 +11°C° 0.1 mm 3 mps 729 mmHg 91%
    12:00 +11°C° 0.1 mm 3 mps 729 mmHg 90%
    13:00 +12°C° 0.1 mm 3 mps 729 mmHg 89%
    14:00 +11°C° 1.3 mm 3 mps 730 mmHg 91%
    15:00 +11°C° 1.3 mm 3 mps 730 mmHg 92%
    16:00 +11°C° 1.3 mm 3 mps 730 mmHg 93%
    17:00 +12°C° 0.6 mm 2 mps 731 mmHg 93%
    18:00 +10°C° 0.6 mm 2 mps 731 mmHg 94%
    19:00 +10°C° 0.6 mm 2 mps 732 mmHg 94%
    20:00 +10°C° 0.1 mm 2 mps 732 mmHg 93%
    21:00 +11°C° 0.1 mm 1 mps 733 mmHg 93%
    22:00 +11°C° 0.1 mm 1 mps 733 mmHg 93%
    23:00 +10°C° 0.2 mm 1 mps 733 mmHg 93%

    30 May, Thursday

    Time Temperature Precipitation Wind Pressure Humidity
    00:00 +10°C° 0.2 mm 1 mps 734 mmHg 93%
    01:00 +9°C° 0.2 mm 1 mps 734 mmHg 93%
    02:00 +9°C° 0.5 mm 1 mps 734 mmHg 93%
    03:00 +9°C° 0.5 mm 1 mps 735 mmHg 93%
    04:00 +9°C° 0.5 mm 1 mps 735 mmHg 93%
    05:00 +9°C° 0.2 mm 1 mps 735 mmHg 91%
    06:00 +9°C° 0.2 mm 1 mps 736 mmHg 90%
    07:00 +9°C° 0.2 mm 1 mps 736 mmHg 89%
    08:00 +9°C° 0 mm 1 mps 736 mmHg 85%
    09:00 +9°C° 0 mm 1 mps 737 mmHg 82%
    10:00 +10°C° 0 mm 1 mps 737 mmHg 78%
    11:00 +11°C° 0 mm 1 mps 737 mmHg 73%
    12:00 +12°C° 0 mm 1 mps 737 mmHg 68%
    13:00 +13°C° 0 mm 2 mps 737 mmHg 63%
    14:00 +13°C° 0 mm 2 mps 737 mmHg 62%
    15:00 +14°C° 0 mm 2 mps 736 mmHg 61%
    16:00 +15°C° 0 mm 2 mps 736 mmHg 60%
    17:00 +14°C° 0 mm 2 mps 736 mmHg 66%
    18:00 +13°C° 0 mm 1 mps 736 mmHg 71%
    19:00 +12°C° 0 mm 1 mps 736 mmHg 77%
    20:00 +11°C° 0 mm 1 mps 736 mmHg 78%
    21:00 +10°C° 0 mm 1 mps 736 mmHg 79%
    22:00 +9°C° 0 mm 1 mps 736 mmHg 81%
    23:00 +9°C° 0 mm 1 mps 736 mmHg 82%

    31 May, Friday

    Time Temperature Precipitation Wind Pressure Humidity
    00:00 +8°C° 0 mm 1 mps 736 mmHg 83%
    01:00 +8°C° 0 mm 1 mps 736 mmHg 84%
    02:00 +8°C° 0 mm 1 mps 735 mmHg 84%
    03:00 +8°C° 0 mm 1 mps 735 mmHg 84%
    04:00 +7°C° 0 mm 1 mps 735 mmHg 84%
    05:00 +9°C° 0 mm 1 mps 735 mmHg 78%
    06:00 +12°C° 0 mm 1 mps 735 mmHg 72%
    07:00 +14°C° 0 mm 1 mps 735 mmHg 66%
    08:00 +16°C° 0 mm 1 mps 734 mmHg 61%
    09:00 +18°C° 0 mm 1 mps 734 mmHg 56%
    10:00 +20°C° 0 mm 1 mps 734 mmHg 52%
    11:00 +20°C° 0 mm 1 mps 734 mmHg 50%
    12:00 +21°C° 0 mm 1 mps 733 mmHg 48%
    13:00 +20°C° 0 mm 2 mps 733 mmHg 46%
    14:00 +20°C° 0 mm 2 mps 733 mmHg 49%
    15:00 +20°C° 0 mm 2 mps 733 mmHg 53%
    16:00 +20°C° 0 mm 2 mps 733 mmHg 56%
    17:00 +17°C° 0.5 mm 3 mps 734 mmHg 68%
    18:00 +14°C° 0.5 mm 4 mps 734 mmHg 81%
    19:00 +10°C° 0.5 mm 5 mps 734 mmHg 94%
    20:00 +9°C° 0.9 mm 5 mps 735 mmHg 93%
    21:00 +8°C° 0.9 mm 5 mps 736 mmHg 93%
    22:00 +7°C° 0.9 mm 4 mps 736 mmHg 92%
    23:00 +7°C° 0.1 mm 4 mps 737 mmHg 92%
    Show more